This is the latest recevied weather packets stored in our database for station/object K1RFS. If no packets are shown the sender has not sent any weather packets the latest 10 day(s).
| Time | Temp. | Humidity | Pressure | Rain* | Wind** | Luminosity | Snow |
|---|---|---|---|---|---|---|---|
| 1777987555 | 11.11° C | 59% | 994.5 hPa | 0 mm | - | 5 W/m² | - |
| 1777987253 | 11.67° C | 56% | 994.6 hPa | 0 mm | - | 6 W/m² | - |
| 1777986949 | 11.67° C | 55% | 994.4 hPa | 0 mm | - | 6 W/m² | - |
| 1777986647 | 11.67° C | 55% | 994.3 hPa | 0 mm | - | 5 W/m² | - |
| 1777986345 | 11.67° C | 54% | 994.1 hPa | 0 mm | - | 6 W/m² | - |
| 1777986043 | 11.67° C | 55% | 994.3 hPa | 0 mm | - | 6 W/m² | - |
| 1777985739 | 11.67° C | 58% | 994 hPa | 0 mm | - | 5 W/m² | - |
| 1777985436 | 11.67° C | 60% | 993.8 hPa | 0 mm | - | 4 W/m² | - |
| 1777985133 | 11.67° C | 59% | 994 hPa | 0 mm | - | 3 W/m² | - |
| 1777984829 | 11.67° C | 60% | 993.7 hPa | 0 mm | - | 2 W/m² | - |
| 1777984526 | 11.67° C | 62% | 993.7 hPa | 0 mm | - | 1 W/m² | - |
| 1777984222 | 11.67° C | 65% | 993.7 hPa | 0 mm | - | 1 W/m² | - |
| 1777983919 | 11.67° C | 65% | 993.7 hPa | 0 mm | - | 0 W/m² | - |
| 1777983616 | 11.67° C | 65% | 993.7 hPa | 0 mm | - | 0 W/m² | - |
| 1777983312 | 11.11° C | 65% | 994 hPa | 0 mm | - | 0 W/m² | - |
| 1777983009 | 11.11° C | 66% | 993.7 hPa | 0 mm | - | 0 W/m² | - |
| 1777982706 | 11.11° C | 66% | 993.7 hPa | 0 mm | - | 0 W/m² | - |
| 1777982406 | 11.11° C | 68% | 994 hPa | 0 mm | - | 0 W/m² | - |
| 1777982101 | 11.11° C | 68% | 993.8 hPa | 0 mm | - | 0 W/m² | - |
| 1777981799 | 11.11° C | 67% | 994.1 hPa | 0 mm | - | 0 W/m² | - |
| 1777981495 | 11.11° C | 67% | 994.1 hPa | 0 mm | - | 0 W/m² | - |
| 1777981192 | 11.11° C | 66% | 994 hPa | 0 mm | - | 0 W/m² | - |
| 1777980888 | 11.67° C | 65% | 994.1 hPa | 0 mm | - | 0 W/m² | - |
| 1777980584 | 11.67° C | 61% | 994.1 hPa | 0 mm | - | 0 W/m² | - |
| 1777980281 | 11.67° C | 61% | 994.2 hPa | 0 mm | - | 0 W/m² | - |
* Rain latest hour (hover to see other rain measurements)
** Current wind speed in m/s (hover to see current wind gust speed)